Juan Pablo Godoy

Olheiro-Chefe - Mitre
31 Dez 2026
Quinta-feira
Processo

Personalidade

Adaptabilidade (13) Ambição (2) Controvérsia (1) Lealdade (13) Pressão (13) Profissionalismo (5) Espírito Esportivo (1) Temperamento (3)

Perfil

Estilo de Treinamento Democrático
Licença Nacional B
Determinação 3
Gestão de Pessoas 1
Motivação 1
Disciplina 6
Satisfação no Trabalho
50%
Fadiga
0%
Função Olheiro-Chefe
Salário 23.3K p/s
Contrato 14.03.2027

Desempenho

Comportamento Normal
Eficácia do Treinamento
10%
Desenvolvimento do Jogador
35%
Prevenção de Lesões
35%
Implementação Tática
10%

Eventos Recentes

Negociação de contrato iniciada agora
Participou de uma reunião de recrutamento agora
Negociação de contrato iniciada 7d atrás
Negociação de contrato iniciada 7d atrás
Negociação de contrato iniciada 7d atrás
Negociação de contrato iniciada 7d atrás
Negociação de contrato iniciada 7d atrás
Negociação de contrato iniciada 7d atrás

Monitorando agora

210
Jogador Clube Status Habilidade Confiança Observado Última observação Último voto
Santiago Gutiérrez Alvarado Ativo 123 / 103 40% 2 29.11.2026 -
Santiago Cáseres Lanús Ativo 138 / 118 40% 1 29.11.2026 -
Gonzalo Mottes Chacarita Juniors Ativo 103 / 109 40% 1 29.11.2026 Mais informações
Carlos Faya Deportivo La Guaira Ativo 99 / 117 40% 1 29.11.2026 -
Tomás Porra Barracas Central Ativo 132 / 111 40% 2 28.11.2026 -
Ignacio Vallejos Colegiales Ativo 117 / 98 40% 1 28.11.2026 -
Rommell Ibarra Deportivo La Guaira Ativo 104 / 91 40% 1 27.11.2026 -
Matías Sánchez Racing Ativo 101 / 95 40% 1 27.11.2026 -
Kevin Martínez Danubio Ativo 83 / 85 40% 1 27.11.2026 -
Tomás Palleres Güemes Ativo 100 / 98 40% 1 27.11.2026 -
Francisco Gómez Racing Club Ativo 107 / 122 40% 1 26.11.2026 -
Patricio Moyano Defensores Ativo 116 / 122 40% 3 24.11.2026 -
Abraham Bahachille Carabobo Ativo 92 / 114 40% 1 24.11.2026 -
Jorge Cabezudo Melgar Ativo 126 / 110 40% 1 23.11.2026 -
Rodolfo Rodríguez River Plate Ativo 99 / 85 40% 1 23.11.2026 -
Luifer Hernández Puebla Ativo 124 / 117 40% 2 22.11.2026 -
Ángelo Lucena Carabobo Ativo 118 / 114 40% 1 22.11.2026 -
Jesús Garza Tigres Ativo 138 / 129 40% 3 20.11.2026 -
Facundo Castet Colón Ativo 93 / 122 40% 1 20.11.2026 -
Fernando Abarzúa San Luis Ativo 79 / 85 40% 2 19.11.2026 -
Ángel Estrada Leon Ativo 102 / 94 40% 1 19.11.2026 -
Valentín Serrano Arsenal Ativo 116 / 131 40% 1 19.11.2026 -
Rafael Hornos Liverpool Montevideo Ativo 72 / 101 40% 1 19.11.2026 -
Fernando Monarrez Puebla Ativo 69 / 114 40% 2 18.11.2026 -
George Marks Philadelphia Union Ativo 115 / 77 40% 1 18.11.2026 -
Mauro Rodas Sportivo Trinidense Ativo 78 / 100 40% 1 18.11.2026 -
Augusto Berrondo Tristán Suárez Ativo 94 / 93 40% 1 18.11.2026 -
Julián Cosi Madryn Ativo 114 / 115 40% 1 16.11.2026 -
Leomar Mosquera Trujillanos Ativo 95 / 95 40% 3 15.11.2026 -
Lucio Castillo Colegiales Ativo 126 / 122 40% 1 15.11.2026 -
Nicolás Retamar Ferro Carril Oeste Ativo 127 / 114 40% 2 14.11.2026 -
Matías Kabalín Ferro Carril Oeste Ativo 100 / 108 40% 1 14.11.2026 -
Juan Pablo Barinaga Patronato Ativo 125 / 103 40% 3 13.11.2026 -
Ramón González Almirante Brown Ativo 108 / 105 40% 1 12.11.2026 -
Damián Adín San Miguel Ativo 108 / 132 40% 1 12.11.2026 -
David Ayala Inter Miami CF Ativo 100 / 112 40% 1 12.11.2026 -
Siro Rosané Estudiantes Ativo 108 / 106 40% 2 10.11.2026 -
Keiver Zúñiga Portuguesa Ativo 111 / 100 40% 2 10.11.2026 -
Rafael Sangiovani Metropolitanos Ativo 115 / 93 40% 1 10.11.2026 -
Cristhofer Mesías Universidad de Concepcion Ativo 112 / 116 40% 1 10.11.2026 -
Gali Balanta Deportes Tolima Ativo 103 / 84 40% 1 10.11.2026 -
Rocco Ríos Novo Inter Miami CF Ativo 80 / 97 40% 1 10.11.2026 -
Lukas González Cerro Largo Ativo 87 / 85 40% 2 07.11.2026 -
Nahuel Galardi Maipú Ativo 106 / 100 40% 1 07.11.2026 -
Eduardo Villanueva Colo-Colo Ativo 101 / 105 40% 1 06.11.2026 -
Francisco Castillo Llaneros Ativo 102 / 84 40% 3 05.11.2026 -
Enzo González Defensores Ativo 119 / 110 40% 1 05.11.2026 -
Joel Orlando Almagro Ativo 119 / 126 40% 1 05.11.2026 -
Santiago Sala Güemes Ativo 125 / 99 40% 1 04.11.2026 -
Alexei Dominguez Pachuca Ativo 83 / 115 40% 1 04.11.2026 -
Matías González Penarol Ativo 119 / 98 40% 1 03.11.2026 Mais informações
Agustín Ojeda Chaco For Ever Ativo 95 / 97 40% 1 03.11.2026 -
Agustín Benítez Defensores Ativo 115 / 121 40% 1 03.11.2026 -
Osciel De La Cruz Chiapas Ativo 107 / 87 40% 1 03.11.2026 -
Isaac Boehmer Vancouver Whitecaps Ativo 122 / 99 40% 2 01.11.2026 -
Jan Franc Lucumí America de Cali Ativo 104 / 115 40% 1 01.11.2026 -
Ulises Sánchez Gimnasia y Esgrima Ativo 124 / 138 40% 1 01.11.2026 -
Matías Núñez Carabobo Ativo 111 / 98 40% 2 31.10.2026 -
Samuel Lucero Defensa y Justicia Ativo 105 / 101 40% 2 31.10.2026 -
Ignacio Rodríguez Racing Club Ativo 136 / 111 40% 2 29.10.2026 -
Kevin Quevedo Universitario Ativo 100 / 126 40% 1 29.10.2026 -
José Barreto Quilmes Ativo 102 / 120 40% 1 28.10.2026 -
Alex Vigo Independiente Rivadavia Ativo 122 / 125 40% 1 28.10.2026 -
Franco Díaz Temperley Ativo 139 / 128 40% 1 27.10.2026 -
Federico Bisanz Atlanta Ativo 105 / 103 40% 1 27.10.2026 -
Abel Bustos Racing Ativo 120 / 124 40% 1 27.10.2026 -
Ronaldo De Jesús Lanús Ativo 132 / 122 40% 1 27.10.2026 -
Luis Barraza Inter Miami CF Ativo 89 / 97 40% 4 26.10.2026 -
Fabricio Hass Central Norte Ativo 92 / 92 40% 1 26.10.2026 -
Maico Quiroz Güemes Ativo 122 / 127 40% 1 26.10.2026 -
Luis Gonzalez Atletico Venezuela Ativo 121 / 116 40% 1 26.10.2026 -
Joaquín Bigo Tristán Suárez Ativo 105 / 122 40% 2 23.10.2026 -
Diego Valencia Universidad Catolica Ativo 117 / 126 40% 1 23.10.2026 -
Daniel Monardes San Luis Ativo 83 / 98 40% 1 23.10.2026 -
Fernando Hernández St. Louis CITY SC Ativo 87 / 104 40% 1 23.10.2026 -
Miguel Silva Carabobo Ativo 119 / 92 40% 2 22.10.2026 -
Facundo Vila Estudiantes Ativo 117 / 93 40% 3 22.10.2026 -
Santiago Homenchenko Queretaro Ativo 115 / 105 40% 4 21.10.2026 -
Massimo Sandi Sport Huancayo Ativo 81 / 91 40% 2 21.10.2026 -
Lorenzo Monti Temperley Ativo 96 / 99 40% 1 20.10.2026 -
Iván Moreno Leon Ativo 127 / 129 40% 2 19.10.2026 -
Paolo Reyna Universitario Ativo 103 / 131 40% 2 19.10.2026 -
Heiderber Ramírez Deportivo Tachira Ativo 103 / 110 40% 1 19.10.2026 -
Cristian Jiménez Cruz Azul Ativo 99 / 115 40% 1 19.10.2026 -
Yuber Quiñónes Deportivo Pereira Ativo 126 / 128 40% 1 17.10.2026 -
Matías Vargas Gimnasia y Esgrima Ativo 120 / 118 40% 1 17.10.2026 -
Federico Pérez Agropecuario Argentino Ativo 101 / 114 40% 2 16.10.2026 -
Martín Campos Ferro Carril Oeste Ativo 107 / 127 40% 1 16.10.2026 -
Emiliano González Almagro Ativo 110 / 105 40% 1 16.10.2026 -
Tomás Ferreyra Defensores Unidos Ativo 105 / 97 40% 1 15.10.2026 -
Camilo Machado Madryn Ativo 102 / 105 40% 1 15.10.2026 -
Emeka Eneli Real Salt Lake Ativo 129 / 103 40% 1 14.10.2026 -
Mario Sanabria Chacarita Juniors Ativo 106 / 94 40% 1 13.10.2026 -
Marcos López San Martín Ativo 118 / 118 40% 2 12.10.2026 -
Matías Samaniego Talleres Ativo 110 / 88 40% 2 12.10.2026 -
Francisco Facello Chacarita Juniors Ativo 113 / 126 40% 1 11.10.2026 -
Maximiliano Ribero Central Norte Ativo 101 / 109 40% 1 10.10.2026 -
Brian Nievas Chaco For Ever Ativo 121 / 118 40% 1 10.10.2026 -
Lautaro Maldonado Instituto Ativo 113 / 124 40% 1 09.10.2026 -
Jeferson Nolasco Cesar Vallejo Ativo 83 / 88 40% 1 09.10.2026 -
Ángel Espínola Sportivo Luqueno Ativo 93 / 114 40% 2 08.10.2026 -
Mauricio Márquez Caracas Ativo 106 / 116 40% 1 08.10.2026 -
Brayan Palmezano Deportivo Tachira Ativo 90 / 107 40% 1 07.10.2026 -
Marcelo Miño Ferro Carril Oeste Ativo 129 / 117 40% 1 06.10.2026 -
Jordan Carrillo Guadalajara Ativo 106 / 121 40% 1 05.10.2026 -
Nahuel Barrios San Lorenzo Ativo 109 / 135 40% 1 04.10.2026 -
Vicente Lagos Santiago Wanderers Ativo 80 / 89 40% 1 04.10.2026 -
Keiber Roa Carabobo Ativo 62 / 82 40% 1 04.10.2026 -
Agustín Hausch Defensa y Justicia Ativo 100 / 139 40% 1 03.10.2026 -
Agustín Mangiaut Argentinos Juniors Ativo 90 / 105 40% 1 03.10.2026 -
Jimmy Evans Universidad Catolica Ativo 105 / 105 40% 1 01.10.2026 -
Nicolás Henry Tristán Suárez Ativo 110 / 104 40% 1 30.09.2026 -
Cristian Díaz Zamora Ativo 102 / 109 40% 1 29.09.2026 -
Franco Zanelatto Melgar Ativo 104 / 95 40% 1 28.09.2026 -
Matías Viguet Maipú Ativo 123 / 124 40% 1 28.09.2026 -
Brian Farioli Estudiantes Ativo 101 / 118 40% 1 26.09.2026 -
Franco Hanashiro Colegiales Ativo 112 / 94 40% 1 26.09.2026 -
Juan Martín Rojas Morón Ativo 117 / 124 40% 1 26.09.2026 -
Fabián Palomino Ayacucho Ativo 91 / 96 40% 1 26.09.2026 -
Nicolás Fernandez Universidad de Chile Ativo 94 / 113 40% 1 25.09.2026 -
Brayan Garrido Iquique Ativo 103 / 93 40% 1 24.09.2026 -
Favian Loyola Audax Italiano Ativo 103 / 91 40% 1 24.09.2026 -
Esteban Matus Olimpia Ativo 110 / 100 40% 1 24.09.2026 -
Ian Pérez Defensores Ativo 96 / 94 40% 1 24.09.2026 -
Diego Gaitán Maipú Ativo 117 / 106 40% 3 22.09.2026 -
Nouhou Seattle Sounders Ativo 137 / 107 40% 1 21.09.2026 Mais informações
Alejandro Rodríguez Deportivo Cali Ativo 133 / 123 40% 1 21.09.2026 -
Luca Lewis Colorado Rapids Ativo 99 / 88 40% 1 20.09.2026 -
Mathías Bordón Sol de America Ativo 87 / 77 40% 1 18.09.2026 -
Marcelo Flores Tigres Ativo 99 / 140 40% 1 18.09.2026 -
Ignacio Yepez Cerrito Ativo 109 / 117 40% 1 18.09.2026 -
Kevin Palacios Santos Laguna Ativo 105 / 135 40% 1 16.09.2026 -
Alexis Serna Independiente Medellin Ativo 125 / 106 40% 1 16.09.2026 -
Déiber Caicedo Junior Ativo 122 / 104 40% 1 16.09.2026 -
Rafael Sánchez Aragua Ativo 85 / 92 40% 1 15.09.2026 -
Alexis Gutiérrez Club America Ativo 147 / 138 40% 2 14.09.2026 -
Brandon Caicedo Atletico Bucaramanga Ativo 111 / 102 40% 1 14.09.2026 -
Santiago Benítez Wanderers Ativo 84 / 86 40% 1 13.09.2026 -
Jorge Murrugarra Universitario Ativo 104 / 118 40% 1 11.09.2026 -
Lucas Monzón Alvarado Ativo 112 / 124 40% 1 11.09.2026 -
Agustín Requena Progreso Ativo 96 / 100 40% 1 10.09.2026 -
Lautaro Lovazzano Portuguesa Ativo 99 / 95 40% 2 09.09.2026 -
Ever Valencia Independiente Medellin Ativo 122 / 101 40% 1 09.09.2026 -
Lukas Ramil Sauer All Boys Ativo 120 / 129 40% 1 08.09.2026 -
Alejandro Santander Cobresal Ativo 103 / 90 40% 1 08.09.2026 -
César Munder Palestino Ativo 107 / 109 40% 1 08.09.2026 -
Raul Castillo Puebla Ativo 89 / 89 40% 1 07.09.2026 -
Neyder Moreno Atletico Nacional Ativo 118 / 117 40% 1 07.09.2026 -
Mauricio Isais Pachuca Ativo 94 / 115 40% 2 06.09.2026 -
Edison López Real Cartagena Ativo 125 / 129 40% 1 06.09.2026 -
Agustín Pinheiro Progreso Ativo 92 / 124 40% 1 03.09.2026 -
Santiago Costa Albion Ativo 98 / 102 40% 1 03.09.2026 -
David Moreno Atletico Venezuela Ativo 97 / 104 40% 1 02.09.2026 -
Denis Olivera Danubio Ativo 116 / 95 40% 1 02.09.2026 -
Ángel Rico Puebla Ativo 82 / 97 40% 1 01.09.2026 -
Juan José Vásquez Union Magdalena Ativo 75 / 81 40% 1 01.09.2026 -
Aldo Pérez Guarani Ativo 95 / 111 40% 2 31.08.2026 -
Juan Diego Ceballos Leones Ativo 111 / 96 40% 1 31.08.2026 -
Aldair Gutiérrez Atletico Bucaramanga Ativo 118 / 114 40% 1 31.08.2026 -
Javier Domínguez Olimpia Ativo 119 / 102 40% 1 28.08.2026 -
Carlos Adrián Sánchez Pachuca Ativo 138 / 107 40% 1 28.08.2026 -
Santiago Simón Toluca Ativo 113 / 97 40% 3 27.08.2026 -
Pedro González Cerro Largo Ativo 120 / 100 40% 1 27.08.2026 -
Jonathan Sirois FC Dallas Ativo 120 / 91 40% 1 27.08.2026 -
Guido Sosa Atenas Ativo 79 / 104 40% 1 27.08.2026 -
Marcos Mina America de Cali Ativo 98 / 103 40% 1 25.08.2026 -
Agustín Chopitea Colon Ativo 108 / 116 40% 1 25.08.2026 -
Roameth Romaña Llaneros Ativo 109 / 113 40% 1 25.08.2026 -
Brian Lapaz Oriental Ativo 70 / 65 40% 1 25.08.2026 -
Nicolás Rossi Juventud Ativo 123 / 124 40% 1 23.08.2026 -
Joshuan Berríos Carabobo Ativo 91 / 116 40% 1 22.08.2026 -
Marco Farfan Tigres Ativo 99 / 106 40% 1 22.08.2026 -
Diego Rosa Fenix Ativo 88 / 106 40% 1 22.08.2026 -
Sebastián Tormo Deportivo Maldonado Ativo 100 / 84 40% 1 22.08.2026 -
Ricardo Echeverría Santos Laguna Ativo 92 / 100 40% 1 20.08.2026 -
Juan Camilo Loaiza Llaneros Ativo 104 / 114 40% 1 19.08.2026 -
Luis Villegas Morelia Ativo 58 / 54 40% 1 19.08.2026 -
Eyder Restrepo Llaneros Ativo 96 / 98 40% 1 18.08.2026 -
Franco Martínez Artigas Ativo 99 / 88 40% 1 18.08.2026 -
Facundo Pérez River Plate Ativo 101 / 111 40% 1 18.08.2026 -
Juan Camilo Mosquera Atletico Bucaramanga Ativo 99 / 110 40% 1 18.08.2026 -
Fernando Tapia Club America Ativo 137 / 119 40% 1 17.08.2026 -
Juan Fernando Alfaro Olimpia Ativo 109 / 125 40% 1 15.08.2026 -
Francisco Casanova Cerrito Ativo 86 / 94 40% 1 15.08.2026 -
Nicolas Hurtado La Equidad Ativo 102 / 127 40% 1 15.08.2026 -
Agustín Pereira Albion Ativo 121 / 99 40% 1 15.08.2026 -
Cristhian Paredes Cerro Porteno Ativo 94 / 126 40% 1 12.08.2026 -
Nicolás Soto America de Cali Ativo 97 / 89 40% 1 12.08.2026 -
Kevin Cataño Atletico Nacional Ativo 97 / 124 40% 1 12.08.2026 -
Vicente Concha Iquique Ativo 84 / 91 40% 1 11.08.2026 -
Pablo Bennevendo Pumas UNAM Ativo 121 / 115 40% 1 11.08.2026 -
Jhojan Torres Santa Fe Ativo 108 / 108 40% 1 09.08.2026 -
Jonathan Pérez Guadalajara Ativo 99 / 113 40% 1 09.08.2026 -
Bryan Castrillón Independiente Medellin Ativo 128 / 114 40% 1 09.08.2026 -
Braian Galván Oriental Ativo 109 / 103 40% 1 08.08.2026 -
Cristian Carbajal Alianza Lima Ativo 120 / 108 40% 1 08.08.2026 -
Fernando Camarda Central Espanol Ativo 94 / 99 40% 1 06.08.2026 -
Santiago Asprilla Envigado Ativo 81 / 69 40% 1 06.08.2026 -
Alberto Martínez Guarani Ativo 70 / 89 40% 1 06.08.2026 -
Kevin Pérez Junior Ativo 99 / 114 40% 1 05.08.2026 -
Héber García Portuguesa Ativo 89 / 109 40% 1 05.08.2026 -
Pablo Monroy Pumas UNAM Ativo 139 / 117 40% 1 05.08.2026 -
Hugo Martínez Libertad Ativo 97 / 105 40% 1 05.08.2026 -
Adriano Freitas Deportivo Maldonado Ativo 108 / 94 40% 1 04.08.2026 -
Jorge Graterol Deportivo Lara Ativo 95 / 105 40% 1 04.08.2026 -
Bryan Rivera Estudiantes de Merida Ativo 90 / 110 40% 1 03.08.2026 -
Éwil Murillo Santa Fe Ativo 109 / 98 40% 1 03.08.2026 -
Johan Madrid Sporting Cristal Ativo 103 / 94 40% 1 03.08.2026 -
Lucas González Sportivo Trinidense Ativo 99 / 104 40% 1 03.08.2026 -
José Hernández Queretaro Ativo 125 / 106 40% 1 02.08.2026 -